Regional Weather Roundup
Issued by NWS

Home | Current Version | Previous Version | Text Only | Print | Product List | Glossary Off
Versions: 1 2 3 4 5 6 7 8 9 10 11 12 13 14 15 16 17 18 19 20 21 22 23 24 25 26 27

000
ASUS45 KSLC 252010
RWRUT

UTAH REGIONAL WEATHER ROUNDUP
NATIONAL WEATHER SERVICE SALT LAKE CITY UT
200 PM MDT THU AUG 25 2016

UTZ001>011-023>025-252100-

NORTHERN UTAH

CITY           SKY/WX    TMP DP  RH WIND       PRES   REMARKS
BRIGHAM CITY     N/A     76  24  14 N9        30.08F
HILL AFB       PTSUNNY   74  34  23 E6        30.10F
LOGAN          PTSUNNY   74  38  27 VRB3      30.10F
OGDEN          PTSUNNY   78  36  21 N9        30.08F
PROVO AIRPORT  PTSUNNY   75  34  22 W8        30.09F
SALT LAKE CITY PTSUNNY   77  31  18 NW13      30.07F
VERNAL         CLOUDY    70  34  26 NE5       30.16F
WENDOVER       MOSUNNY   79  28  15 SE12      30.08F
HEBER CITY     PTSUNNY   72  30  21 CALM      30.13F
WEST JORDAN    PTSUNNY   78  32  18 NE7       30.09F

$$

UTZ012>022-026-027-252100-

SOUTHERN/CENTRAL UTAH

CITY           SKY/WX    TMP DP  RH WIND       PRES   REMARKS
BLANDING       SUNNY     78  40  26 SW7G20    30.26F
BRYCE CANYON   CLOUDY    61  37  41 N12       30.30F
CEDAR CITY     LGT RAIN  66  47  50 NE15G22   30.18S
DELTA          PTSUNNY   75  21  13 S8        30.12F
MILFORD        CLOUDY    71  40  32 SE16G22   30.15S
MOAB/CYNLANDS  MOSUNNY   85  42  22 MISG      30.04F
PRICE          PTSUNNY   75  33  21 SE9       30.15F
ST GEORGE      MOCLDY    91  45  19 NW5       29.95F

$$

REGIONAL REPORTS     COLORADO/ARIZONA

CITY           SKY/WX    TMP DP  RH WIND       PRES   REMARKS
CRAIG, CO      CLOUDY    71  36  27 W14       30.23F
GRAND JUNCTION SUNNY     78  38  23 S3        30.10F
RIFLE          CLOUDY    74  39  28 NE5       30.18F
MONTROSE       CLOUDY    76  42  29 N9        30.19F
CORTEZ         SUNNY     76  39  26 CALM      30.19F
PAGE, AZ       PTSUNNY   81  43  26 W7        30.04F
GRAND CANYON   CLOUDY    59  52  77 E7        30.26F
KINGMAN        SUNNY     92  46  20 S20G25    30.03F
FLAGSTAFF      MOSUNNY   74  45  35 SW15G25   30.27F

$$

REGIONAL REPORTS    NEVADA/IDAHO/WYOMING

CITY           SKY/WX    TMP DP  RH WIND       PRES   REMARKS
LAS VEGAS, NV  MOSUNNY  100  30   8 S12G18    29.85F HX  94
ELY            MOSUNNY   80  20  10 SW15G23   30.13F
ELKO           SUNNY     79  23  12 S3        30.10F
POCATELLO, ID  MOSUNNY   77  35  21 N12       30.11F
BURLEY         SUNNY     74  37  26 NE7       30.09F
EVANSTON, WY   CLOUDY    65  27  23 VRB6      30.26F
ROCK SPRINGS   CLOUDY    67  32  27 E9        30.25F

$$




USA.gov is the U.S. government's official web portal to all federal, state and local government web resources and services.